Regional Weather Roundup
Issued by NWS

Home | Current Version | Previous Version | Graphics & Text | Print | Product List | Glossary On
Versions: 1 2 3 4 5 6 7 8 9 10 11 12 13 14 15 16 17 18 19 20 21 22 23 24 25 26 27 28 29 30 31 32 33 34 35 36 37 38 39 40 41 42 43 44 45 46 47 48 49 50
000
ASUS43 KOAX 300002
RWRNE

WEATHER ROUNDUP FOR NEBRASKA
NATIONAL WEATHER SERVICE OMAHA NE
600 PM CST THU JAN 29 2015

NOTES: SATELLITE DATA IS BEING USED TO AUGMENT CLOUD COVER ABOVE
       12000 FEET.
       "FAIR" INDICATES FEW OR NO CLOUDS BELOW 12,000 FEET WITH NO
       SIGNIFICANT WEATHER AND/OR OBSTRUCTIONS TO VISIBILITY.

  * THESE STATIONS DO NOT REPORT WEATHER SUCH AS RAIN...SNOW OR FOG.

NEZ001>004-019>022-054>056-300100-
NEBRASKA PANHANDLE

CITY           SKY/WX    TMP DP  RH WIND       PRES   REMARKS
SCOTTSBLUFF    CLEAR     41  22  46 SE7       30.41R
6HR MIN TEMP:  40; 6HR MAX TEMP:  50;

ALLIANCE       CLEAR     37  12  35 SE3       30.41S
6HR MIN TEMP:  37; 6HR MAX TEMP:  45;

CHADRON        CLEAR     36  19  50 SE7       30.41S WCI  30
6HR MIN TEMP:  36; 6HR MAX TEMP:  46;

SIDNEY         PTCLDY    37  16  42 E6        30.43S WCI  32
6HR MIN TEMP:  37; 6HR MAX TEMP:  47;

$$

NEZ057>060-069>072-079>082-300100-
SOUTHWEST NEBRASKA

CITY           SKY/WX    TMP DP  RH WIND       PRES   REMARKS
NORTH PLATTE   CLEAR     39  15  37 CALM      30.46R
6HR MIN TEMP:  38; 6HR MAX TEMP:  47;

IMPERIAL       CLEAR     40  17  39 N3        30.47S
6HR MIN TEMP:  38; 6HR MAX TEMP:  46;

MCCOOK         CLEAR     39  20  46 NW6       30.47S WCI  35
6HR MIN TEMP:  39; 6HR MAX TEMP:  48;

$$

NEZ005>010-023>029-035>040-094-300100-
NORTH CENTRAL NEBRASKA

CITY           SKY/WX    TMP DP  RH WIND       PRES   REMARKS
VALENTINE      CLEAR     39  19  44 NE6       30.44S WCI  35
6HR MIN TEMP:  39; 6HR MAX TEMP:  45;

BROKEN BOW     CLEAR     37  19  48 NW3       30.46R
6HR MIN TEMP:  37; 6HR MAX TEMP:  46;

ORD            CLEAR     36  20  52 N7        30.46R WCI  30
6HR MIN TEMP:  36; 6HR MAX TEMP:  46;

$$

NEZ041-046>049-061>064-073>077-083>087-300100-
SOUTH CENTRAL NEBRASKA

CITY           SKY/WX    TMP DP  RH WIND       PRES   REMARKS
GRAND ISLAND   CLEAR     37  21  52 N8        30.48R WCI  31
6HR MIN TEMP:  37; 6HR MAX TEMP:  46;

AURORA         CLEAR     36  21  54 N7        30.47R WCI  31
HASTINGS       CLEAR     36  19  50 N5        30.46R WCI  32
6HR MIN TEMP:  36; 6HR MAX TEMP:  46;

KEARNEY *      CLEAR     39  19  45 NW3       30.48R
YORK           CLEAR     34  25  69 N7        30.48R WCI  28
$$

NEZ011>018-030>034-042>045-300100-
NORTHEAST NEBRASKA

CITY           SKY/WX    TMP DP  RH WIND       PRES   REMARKS
NORFOLK        CLEAR     32  24  72 N7        30.48R WCI  26
6HR MIN TEMP:  32; 6HR MAX TEMP:  41;

ALBION         CLEAR     36  23  60 N9        30.47R WCI  29
BLAIR          MOCLDY    35  24  64 NW12      30.46R WCI  27
COLUMBUS *     CLEAR     34  19  55 N7        30.50R WCI  28
FREMONT        CLEAR     34  25  70 NW8       30.49R WCI  27
TEKAMAH        CLOUDY    34  24  67 N14       30.49R WCI  25
6HR MIN TEMP:  34; 6HR MAX TEMP:  39;

$$

NEZ050>053-065>068-078-088>093-300100-
SOUTHEAST NEBRASKA

CITY           SKY/WX    TMP DP  RH WIND       PRES   REMARKS
LINCOLN        CLEAR     33  23  66 N6        30.49R WCI  28
6HR MIN TEMP:  32; 6HR MAX TEMP:  43;

OMAHA EPPLEY   MOCLDY    35  25  66 N12       30.47R WCI  27
6HR MIN TEMP:  35; 6HR MAX TEMP:  39;

FALLS CITY     CLEAR     34  23  64 N8        30.47R WCI  27
6HR MIN TEMP:  34; 6HR MAX TEMP:  42;

$$

NEZ044-045-051>053-067-300100-
OMAHA AREA

CITY           SKY/WX    TMP DP  RH WIND       PRES   REMARKS
OMAHA EPPLEY   MOCLDY    35  25  66 N12       30.47R WCI  27
6HR MIN TEMP:  35; 6HR MAX TEMP:  39;

BLAIR          MOCLDY    35  24  64 NW12      30.46R WCI  27
FREMONT        CLEAR     34  25  70 NW8       30.49R WCI  27
OFFUTT AFB     MOCLDY    36  24  62 NW12      30.47R WCI  28
$$


USA.gov is the U.S. government's official web portal to all federal, state and local government web resources and services.